Time,TemperatureF,DewpointF,PressureIn,WindDirection,WindDirectionDegrees,WindSpeedMPH,WindSpeedGustMPH,Humidity,HourlyPrecipIn,Conditions,Clouds,dailyrainin,SoftwareType,DateUTC
2013-02-14 00:05:00,40.5,38.4,30.46,NE,34,3.0,3.0,92,0.00,,OVC033,-99.99,VWS V12.07,2013-02-14 08:05:00,
2013-02-14 01:05:00,40.5,38.4,30.47,NE,54,1.0,2.0,92,0.00,,OVC033,-99.99,VWS V12.07,2013-02-14 09:05:00,
2013-02-14 02:05:00,40.5,38.1,30.46,NE,54,3.0,3.0,91,0.00,,OVC090,-99.99,VWS V12.07,2013-02-14 10:05:00,
2013-02-14 03:05:00,40.6,38.7,30.46,East,95,2.0,3.0,93,0.00, BR,,-99.99,VWS V12.07,2013-02-14 11:05:00,
2013-02-14 04:05:00,41.1,39.2,30.45,NE,54,3.0,6.0,93,0.01, BR,,-99.99,VWS V12.07,2013-02-14 12:05:00,
2013-02-14 05:05:00,41.2,39.3,30.47,ENE,68,3.0,4.0,93,0.01,,OVC005,-99.99,VWS V12.07,2013-02-14 13:05:00,
2013-02-14 06:05:00,41.2,39.3,30.49,NE,51,0.0,3.0,93,0.02, -RA,-RA,-99.99,VWS V12.07,2013-02-14 14:05:00,
2013-02-14 07:05:00,41.1,39.5,30.49,NE,55,2.0,3.0,94,0.01, -RA,-RA,-99.99,VWS V12.07,2013-02-14 15:05:00,
2013-02-14 08:05:00,41.1,39.2,30.51,NE,51,2.0,3.0,93,0.00, -RA BR,-RA,-99.99,VWS V12.07,2013-02-14 16:05:00,
2013-02-14 09:05:00,41.5,39.6,30.52,NE,37,3.0,5.0,93,0.01, -RA,-RA,-99.99,VWS V12.07,2013-02-14 17:05:00,
2013-02-14 10:05:00,42.5,40.6,30.51,East,79,2.0,3.0,93,0.01, -RA BR,-RA,-99.99,VWS V12.07,2013-02-14 18:05:00,
2013-02-14 11:05:00,43.3,40.6,30.53,NE,41,2.0,4.0,90,0.00,,OVC020,-99.99,VWS V12.07,2013-02-14 19:05:00,
2013-02-14 12:05:00,44.6,40.1,30.52,East,92,2.0,4.0,84,0.00, BR,,-99.99,VWS V12.07,2013-02-14 20:05:00,
2013-02-14 13:05:00,46.4,40.6,30.51,SSE,161,1.0,7.0,80,0.00,,OVC016,-99.99,VWS V12.07,2013-02-14 21:05:00,
2013-02-14 14:05:00,47.1,40.6,30.50,SW,222,0.0,3.0,78,0.00,,OVC016,-99.99,VWS V12.07,2013-02-14 22:05:00,
2013-02-14 15:05:00,46.8,41.3,30.50,East,96,0.0,2.0,81,0.00,,OVC012,-99.99,VWS V12.07,2013-02-14 23:05:00,
2013-02-14 16:05:00,47.0,41.2,30.50,East,86,1.0,3.0,80,0.00, -RA,-RA,-99.99,VWS V12.07,2013-02-15 00:05:00,
2013-02-14 17:05:00,46.0,41.8,30.51,SSE,165,0.0,0.0,85,0.00,,OVC012,-99.99,VWS V12.07,2013-02-15 01:05:00,
2013-02-14 18:05:00,45.1,41.2,30.50,SSE,164,0.0,0.0,86,0.00,,OVC012,-99.99,VWS V12.07,2013-02-15 02:05:00,
2013-02-14 19:05:00,44.8,41.5,30.52,SSE,164,0.0,0.0,88,0.00, BR,,-99.99,VWS V12.07,2013-02-15 03:05:00,
2013-02-14 20:05:00,44.3,41.6,30.52,SSE,161,0.0,0.0,90,0.00, BR,,-99.99,VWS V12.07,2013-02-15 04:05:00,
2013-02-14 21:05:00,44.1,41.9,30.51,NNE,31,0.0,0.0,92,0.00, BR,,-99.99,VWS V12.07,2013-02-15 05:05:00,
2013-02-14 22:05:00,43.8,41.6,30.51,NNE,31,0.0,1.0,92,0.00,,OVC011,-99.99,VWS V12.07,2013-02-15 06:05:00,
2013-02-14 23:05:00,42.6,40.4,30.51,NNE,32,0.0,0.0,92,0.00,,OVC050,-99.99,VWS V12.07,2013-02-15 07:05:00,